Dewpoint
58 58 57 57 57 57 57 57 57 57 58 58 59 59 59 59 59 59 59 59 59 59 58 58 58 58 57 57 57 57 57 56 54 53 40 34 50 71 70 72 71 70 74 48 37 33 33 41 46 46 46 47 48 43 47 45 44 38 37 33 28 32 13 16 23 27 36 43 46 49 51 51 51 54 55 57 57 57 56 56 58 61 62 64 65 67 68 70
58 57 57 57 57 57 57 57 57 57 58 58 59 59 59 59 59 59 59 59 59 59 58 58 58 58 57 56 56 56 57 56 52 51 37 42 68 70 73 70 72 72 66 36 38 46 33 42 44 45 47 46 44 43 39 36 44 36 32 30 21 25 17 16 24 34 43 43 46 47 49 50 51 52 52 55 55 55 55 56 59 62 63 65 66 66 68 69
57 57 57 57 57 57 57 57 57 57 57 58 58 58 59 59 59 59 59 59 58 58 58 58 57 57 57 56 56 58 57 55 52 31 22 61 63 69 72 73 73 73 37 33 46 44 44 46 44 48 48 46 35 35 29 26 40 39 31 27 25 32 17 28 34 43 44 45 46 47 48 48 49 51 53 55 55 55 55 56 59 62 62 63 64 65 67 68
58 58 57 57 57 57 57 57 57 57 57 57 58 58 58 58 58 58 58 58 58 58 58 57 57 57 56 56 57 57 56 55 14 17 33 69 72 67 68 73 74 73 48 46 47 46 47 46 47 49 48 35 33 28 24 24 24 21 21 19 16 14 25 30 43 45 46 47 48 48 49 49 50 52 55 55 55 55 56 57 59 62 62 63 64 65 68 69
57 57 57 57 57 57 57 57 57 57 57 57 57 57 58 58 58 58 58 58 58 58 58 57 57 57 56 57 57 57 55 -3 -3 21 46 75 75 72 68 72 74 61 48 49 41 47 49 48 49 47 37 35 29 27 28 29 25 29 21 13 14 24 34 34 44 48 49 50 49 49 49 49 52 53 54 54 53 54 56 57 61 62 63 63 63 64 68 70
57 57 57 57 57 57 57 58 58 57 57 57 57 57 57 57 58 58 58 58 58 58 57 57 57 57 57 57 56 55 28 16 31 36 75 74 74 74 70 72 72 52 47 49 44 51 47 49 45 44 41 35 35 28 25 22 20 11 11 13 15 21 39 42 47 49 50 50 50 50 51 53 56 58 58 55 52 54 58 59 61 63 63 63 64 64 67 69
57 57 57 57 57 57 57 58 57 57 57 57 57 57 57 57 57 57 57 57 57 57 57 57 57 56 57 58 56 52 20 12 38 53 73 74 73 72 73 73 71 54 49 40 50 47 52 48 44 45 42 25 19 17 14 13 14 10 10 14 21 42 43 45 47 50 49 50 50 52 53 54 56 55 59 60 59 55 59 60 61 62 63 63 63 63 66 68
57 57 57 57 57 57 57 57 57 57 57 57 57 57 57 57 57 57 57 57 57 58 57 57 57 56 57 56 52 38 23 10 9 62 77 75 73 73 69 59 55 52 44 39 51 49 49 45 43 44 29 24 22 14 13 7 9 15 17 18 19 36 39 44 46 49 51 52 53 55 57 59 59 59 61 60 56 59 60 60 61 61 62 62 62 63 64 66
56 57 57 57 57 57 57 57 57 57 57 57 57 57 57 57 57 57 57 57 57 58 58 57 56 56 58 57 47 18 11 27 27 73 72 66 66 58 50 47 50 44 46 49 49 48 41 42 39 36 30 34 25 17 17 11 10 20 13 16 20 39 43 45 48 51 52 53 56 58 58 59 59 61 59 60 56 59 60 60 60 60 60 61 61 63 64 65
56 57 57 57 57 57 57 57 57 57 57 57 57 57 56 57 56 56 57 57 57 57 57 57 57 58 58 56 35 12 14 33 69 69 63 64 62 57 52 52 46 42 36 46 47 46 42 44 38 41 38 34 25 18 19 12 13 18 19 19 35 42 44 47 49 52 53 53 56 56 55 57 59 59 57 61 57 60 60 60 60 59 59 60 61 63 64 64
56 56 57 57 57 57 57 57 57 57 57 57 57 57 57 56 57 57 57 57 57 57 58 58 58 58 56 56 31 31 38 50 63 61 62 62 57 48 47 52 47 44 45 47 45 45 44 45 45 43 28 24 22 18 29 19 17 19 20 21 29 26 33 42 49 53 53 53 57 58 58 59 60 60 58 60 57 59 59 59 59 59 59 60 62 63 64 64
56 56 56 56 57 57 57 57 57 57 57 57 57 57 56 57 56 57 57 57 57 58 58 57 59 57 57 53 41 30 42 47 60 56 56 53 48 47 49 52 48 46 41 41 43 44 43 41 27 21 20 21 18 28 18 21 21 19 20 21 25 31 36 43 51 50 53 54 58 58 57 58 60 59 61 60 58 59 60 60 60 61 60 61 62 63 64 63
56 56 56 56 56 56 56 56 56 56 56 56 56 56 56 56 56 56 57 57 58 58 58 58 59 58 57 46 39 42 52 50 52 53 54 48 46 47 48 51 48 48 44 40 39 41 43 33 23 27 21 21 20 17 20 22 22 23 21 26 25 27 35 38 44 47 54 56 55 54 51 54 59 61 61 61 61 62 62 63 63 63 63 62 63 63 64 64
56 56 56 56 56 56 56 56 56 56 55 56 55 55 55 55 56 57 57 57 59 59 59 59 58 59 54 48 50 52 54 46 49 50 52 50 44 43 44 45 49 48 48 42 40 39 39 30 31 28 26 20 19 23 21 23 20 17 23 22 23 24 29 32 42 51 53 56 44 57 53 54 57 60 61 62 62 62 62 63 63 63 64 63 63 63 63 64
55 56 56 55 56 56 56 55 55 55 55 55 55 55 55 55 56 57 58 58 59 59 60 60 60 57 51 47 50 56 66 45 44 44 49 45 42 40 40 41 41 41 42 43 42 41 38 28 25 23 20 29 26 23 20 21 19 20 16 18 19 23 27 29 39 51 51 47 55 55 53 54 56 59 61 62 62 63 64 65 65 65 65 65 65 64 65 67
55 55 55 55 55 55 55 55 54 55 54 54 54 54 56 57 57 58 59 59 60 61 59 58 57 55 46 35 34 61 40 39 39 42 43 44 41 40 40 39 39 40 39 38 40 39 32 26 22 21 24 23 22 23 23 21 23 27 16 28 18 24 24 31 37 39 45 49 46 54 51 53 54 58 60 62 63 64 64 64 64 64 65 65 65 66 66 67
55 54 55 55 55 55 56 54 54 54 53 53 53 55 56 58 60 61 61 60 60 60 60 56 55 58 29 29 41 30 33 37 38 39 38 42 41 41 38 36 37 35 35 32 32 28 25 24 28 24 23 22 21 23 21 25 24 23 25 22 21 23 28 31 38 41 45 45 46 52 52 52 53 58 60 62 63 64 64 64 64 64 65 65 65 66 67 67
54 54 54 54 55 55 55 53 53 53 53 52 53 54 56 59 61 60 61 61 60 60 59 59 56 40 30 33 27 24 31 31 33 36 37 37 41 40 36 35 34 31 26 24 23 25 26 23 23 20 23 22 21 23 22 19 17 18 23 22 18 26 31 34 36 40 43 46 48 49 51 49 54 57 60 62 64 64 64 64 64 64 65 65 66 66 67 67
55 54 54 55 55 55 54 53 53 52 52 53 54 58 59 60 58 54 53 54 50 41 41 47 43 29 17 21 30 36 34 28 32 32 34 35 38 37 34 35 29 28 25 23 21 23 23 23 27 24 20 22 20 19 19 19 20 17 15 16 22 23 30 33 35 43 44 45 46 48 48 50 53 56 59 62 64 64 64 64 64 64 64 65 65 66 67 68
55 54 55 54 54 54 54 53 52 52 52 51 51 55 51 38 38 40 50 51 47 33 37 41 46 47 42 38 35 33 36 32 28 29 36 35 31 32 32 31 29 24 21 20 21 28 25 20 19 19 21 19 20 21 22 22 18 17 18 21 18 24 26 36 41 42 46 45 45 49 49 51 53 56 60 62 63 63 63 63 63 63 63 64 65 66 67 67
54 54 54 54 54 53 53 52 52 51 52 51 51 39 34 36 34 33 37 38 45 45 43 42 43 40 34 39 38 30 29 29 29 29 28 43 30 27 27 26 22 24 22 21 19 24 23 23 22 20 19 20 23 20 18 17 16 22 20 21 22 28 31 39 40 42 43 42 45 51 52 53 55 58 61 62 62 61 62 62 62 62 63 64 65 66 67 67
54 54 53 53 53 53 53 52 51 51 50 50 44 32 35 35 37 37 39 36 38 39 42 41 42 40 42 41 40 34 24 23 24 23 23 31 28 23 22 22 21 19 24 19 21 21 24 20 17 18 20 23 21 22 26 26 20 20 22 22 23 26 27 33 40 37 43 44 44 50 51 50 54 57 59 60 61 61 62 62 62 62 62 62 63 64 65 66
54 53 53 53 53 52 52 52 51 51 52 49 42 36 35 36 39 46 39 37 37 39 38 38 37 37 37 38 37 26 19 20 20 22 21 24 23 23 22 20 21 30 19 19 19 27 20 17 18 18 20 24 18 23 20 20 19 21 23 23 24 28 30 27 35 37 40 42 45 48 48 50 53 54 56 57 59 60 61 62 62 62 62 62 63 64 65 66
54 54 53 53 52 52 52 50 51 52 49 48 46 39 39 43 45 46 40 37 34 36 38 38 35 32 33 24 24 19 18 19 20 19 30 21 19 22 23 21 19 18 20 18 17 18 17 16 20 19 19 19 17 16 14 14 16 23 20 20 15 23 26 29 28 40 44 45 47 48 47 48 51 52 55 59 60 61 61 62 62 62 63 63 64 64 65 65
54 54 54 53 51 52 50 50 48 48 48 47 47 43 41 50 48 40 37 37 35 36 39 35 36 25 21 24 22 18 20 23 18 20 26 20 21 20 20 23 23 20 17 18 17 17 16 17 21 22 21 16 16 12 13 13 12 11 23 13 18 16 19 33 38 38 40 43 45 44 39 42 47 49 55 58 60 60 61 61 61 62 62 63 63 63 64 64
54 53 54 52 52 51 50 43 46 46 46 39 40 44 47 47 49 46 40 32 24 29 24 21 25 19 21 17 21 20 16 18 17 17 27 21 28 19 22 19 23 18 19 17 15 21 15 18 20 20 21 23 15 15 16 15 16 18 15 26 21 14 16 32 34 39 39 40 43 45 39 38 42 50 55 57 59 59 60 60 61 61 62 62 62 62 63 63
53 53 52 52 52 50 24 34 43 44 43 41 43 47 48 47 56 44 35 35 23 28 19 21 18 20 25 19 17 18 12 13 20 23 24 44 19 25 16 16 22 26 21 26 24 17 21 19 19 21 20 18 17 15 17 19 18 14 17 18 18 18 14 27 33 37 39 40 39 40 42 41 39 46 54 57 58 58 59 59 60 61 61 61 61 62 62 62
53 52 51 51 51 51 41 46 44 35 34 43 50 48 48 51 52 48 37 27 29 32 17 17 20 22 20 22 17 14 18 21 15 16 21 28 21 17 19 17 15 16 18 17 15 18 16 19 24 25 21 19 18 21 18 21 17 14 16 18 19 24 18 17 11 16 21 37 38 37 43 38 39 44 53 56 56 56 57 58 59 60 60 60 61 61 61 61
52 52 52 52 51 50 50 48 50 36 42 50 48 48 49 52 45 41 33 26 30 18 21 17 20 19 20 19 16 18 17 24 16 19 22 21 24 17 21 15 18 18 26 16 15 17 22 18 20 20 18 17 25 20 22 27 14 17 17 24 25 26 27 16 15 20 27 28 34 37 38 34 35 42 51 53 54 55 56 58 58 59 59 59 59 60 60 60
52 51 52 52 48 52 51 51 47 43 45 46 48 49 52 46 36 26 21 16 22 16 20 19 17 15 19 14 15 19 18 17 21 21 20 19 20 20 20 18 18 19 15 22 18 20 21 49 33 21 18 23 21 18 21 18 17 22 24 21 22 28 33 41 36 31 23 18 24 30 36 34 32 43 50 52 54 55 56 57 58 58 58 58 58 59 59 59
51 51 51 51 46 41 41 28 31 40 45 48 50 50 48 46 37 28 19 15 25 28 19 17 14 18 13 13 12 16 21 19 17 18 16 19 15 19 20 16 22 23 26 27 16 18 21 20 21 22 41 22 20 18 20 22 25 20 22 23 24 24 30 34 31 32 17 19 31 29 30 36 29 34 47 53 52 55 56 57 57 56 56 57 57 58 58 59
50 49 51 49 49 48 36 18 35 39 47 52 51 47 43 38 33 23 18 35 25 25 17 14 18 16 13 15 14 13 12 16 21 17 14 14 17 15 16 17 27 16 17 23 16 24 18 18 21 21 57 21 24 16 19 22 20 21 31 29 17 14 23 13 28 15 16 17 29 34 35 34 32 36 45 50 52 55 56 57 57 56 55 56 56 57 58 59
49 49 49 50 51 49 49 32 37 38 50 52 47 45 40 33 23 29 31 32 26 22 15 17 14 16 15 13 14 16 18 11 15 18 17 20 15 15 16 13 22 15 13 28 22 20 21 27 27 22 19 32 18 13 18 14 23 17 19 30 21 19 23 17 25 24 20 25 27 24 38 34 38 43 49 49 50 53 56 56 57 56 55 55 56 57 58 57
49 49 47 48 51 49 46 52 46 49 49 52 41 39 34 29 30 56 28 31 27 28 23 17 17 15 14 11 12 13 11 14 14 15 16 20 14 17 16 16 17 14 23 31 14 20 17 16 20 29 18 22 22 18 23 20 21 20 27 24 22 22 20 15 21 14 16 19 22 28 34 31 38 39 49 51 51 52 55 55 55 54 54 55 56 57 56 56
48 47 47 47 49 48 47 45 44 46 51 41 38 38 34 33 37 34 33 32 26 24 21 23 14 18 15 15 16 15 16 12 18 16 15 13 15 14 14 13 16 18 28 14 25 29 18 20 23 26 21 21 20 29 28 27 25 27 22 24 19 23 32 16 26 22 25 21 21 35 36 41 43 48 52 52 52 53 54 53 54 54 55 55 56 55 56 56
45 38 44 43 49 49 48 47 44 44 43 39 36 30 29 34 28 32 30 30 27 28 25 17 15 20 15 14 18 16 19 14 15 23 20 14 13 13 16 15 13 15 13 14 26 22 26 21 22 32 24 21 22 27 25 27 23 27 21 23 23 29 30 29 37 35 32 26 23 37 43 46 48 48 49 51 51 52 52 53 53 53 54 55 55 55 56 56
42 47 36 42 43 46 49 46 46 48 41 35 31 29 35 37 33 33 43 30 28 29 24 18 19 12 14 13 16 18 16 15 19 13 16 18 15 16 15 17 17 14 13 19 28 29 19 25 25 25 26 23 25 26 28 27 27 21 22 22 30 34 32 25 15 25 24 16 23 40 42 42 40 39 49 49 50 50 51 52 52 53 54 54 54 54 55 56
46 47 51 52 48 44 51 49 50 44 40 38 34 52 44 33 35 33 33 31 31 26 21 22 18 15 19 16 17 17 17 11 15 13 15 13 14 20 14 21 20 14 14 20 16 21 24 19 22 25 23 26 29 25 24 29 27 20 19 27 21 21 18 28 24 16 15 14 20 24 41 43 42 42 46 47 48 49 50 51 51 52 53 54 54 54 54 55
47 49 18 27 44 44 50 51 45 43 39 35 34 37 46 37 34 34 34 35 32 29 20 21 21 24 18 17 17 26 19 11 13 13 14 17 13 19 13 20 26 22 16 20 16 26 30 21 24 27 22 26 28 25 24 23 25 26 21 19 29 25 28 21 25 28 22 16 19 13 39 38 45 44 47 47 48 49 49 49 50 52 53 54 53 53 53 53
46 23 16 23 37 42 53 48 44 40 36 32 38 37 36 35 34 35 34 34 29 24 24 21 28 24 25 20 21 20 24 16 14 15 18 21 13 21 26 26 25 25 21 26 20 30 21 32 20 24 28 23 22 28 25 24 25 24 24 26 27 30 30 24 31 22 20 22 18 23 29 36 40 46 47 48 48 49 49 49 50 52 53 53 53 52 52 53
48 29 23 30 37 36 44 40 37 37 37 40 40 37 34 33 33 32 33 33 31 28 23 22 22 20 22 23 18 29 21 23 19 18 18 16 15 18 21 28 26 21 24 21 21 26 23 27 22 29 29 24 25 26 24 25 24 23 22 22 23 26 23 19 22 27 31 21 19 23 21 31 35 49 49 48 49 49 49 49 50 52 53 53 53 52 52 53
45 20 13 32 34 33 39 36 35 42 37 36 32 36 35 51 40 35 33 32 29 25 27 25 25 22 25 23 21 24 25 25 25 24 26 12 28 24 24 29 26 27 19 20 19 25 23 35 27 25 26 22 25 26 34 26 27 26 25 26 25 31 26 24 18 24 25 29 34 30 21 25 39 49 50 49 49 49 49 49 50 52 52 53 53 52 53 53
35 33 39 36 39 31 29 30 43 34 32 35 36 27 33 35 36 34 31 30 28 28 24 24 25 21 22 21 24 22 25 28 29 23 26 29 33 27 29 31 32 36 30 35 26 29 64 30 27 30 36 37 31 30 34 36 29 26 33 28 26 26 26 23 26 30 22 26 19 21 24 23 37 50 52 50 49 49 48 48 49 51 52 53 52 53 54 54
39 38 38 40 46 30 24 25 27 27 36 38 30 23 25 23 24 20 25 28 27 24 23 24 27 23 24 27 23 21 30 21 26 28 29 32 29 31 39 39 41 39 32 30 27 29 28 29 27 23 23 26 28 31 28 32 36 34 31 34 27 29 31 31 34 33 23 25 24 19 17 23 38 51 50 49 48 46 45 46 50 51 52 52 53 54 54 54
42 42 40 43 49 22 18 24 26 29 28 25 22 22 22 20 25 21 24 26 33 26 27 26 24 24 23 24 27 26 33 22 27 24 27 33 28 41 37 39 42 43 54 43 55 33 32 36 30 24 22 19 20 21 25 26 29 34 39 36 32 28 25 27 23 25 18 30 29 22 21 28 34 45 47 47 47 45 45 46 49 51 51 52 53 54 54 54
43 40 44 44 44 42 38 35 30 32 29 33 31 29 23 21 24 29 29 28 29 29 26 27 26 25 25 24 26 26 27 31 26 26 32 28 29 30 36 39 41 45 60 64 57 47 40 44 37 32 25 24 26 31 36 45 35 30 32 33 30 28 33 33 31 24 19 28 26 28 30 32 39 45 45 46 46 44 43 46 48 49 51 53 53 54 54 54
43 43 43 41 43 41 42 42 42 40 36 34 30 32 30 27 28 24 27 28 29 27 28 27 26 25 26 25 27 25 35 30 34 30 30 29 33 30 36 41 47 63 63 54 58 39 40 31 37 35 35 31 33 37 36 45 32 35 33 29 30 26 27 29 26 26 32 28 24 34 34 32 36 43 45 45 45 45 45 46 48 50 51 53 53 54 59 54
40 45 45 44 40 37 41 39 42 42 41 32 31 36 33 32 30 27 27 31 30 29 24 27 26 26 24 22 27 25 34 37 37 27 35 38 33 32 32 32 39 50 48 30 45 38 37 29 32 35 35 40 34 34 39 34 35 35 31 28 28 34 28 29 33 32 32 27 25 32 35 33 33 39 44 45 45 45 44 46 48 50 52 53 53 53 54 54
46 46 45 44 43 44 43 42 43 44 36 35 39 37 32 31 33 35 32 27 29 28 27 29 28 28 27 29 30 30 37 26 28 38 35 35 34 36 33 34 38 35 31 32 34 43 31 32 36 32 32 30 35 38 33 35 34 33 35 32 30 28 29 30 33 37 32 33 33 33 36 34 32 33 41 45 47 47 48 50 50 51 51 52 52 52 53 53
45 44 43 45 44 42 42 43 41 39 34 42 36 36 35 34 35 36 36 28 28 27 28 27 25 24 28 32 38 30 34 30 31 31 38 38 33 38 35 37 35 34 32 33 35 37 30 30 45 39 29 33 36 41 39 36 35 31 30 32 30 28 29 32 34 34 39 36 36 37 35 35 38 43 45 48 48 49 49 50 49 50 51 52 51 51 52 53
45 46 46 44 43 43 47 41 40 39 34 37 36 37 37 36 36 37 36 32 27 27 24 24 24 31 39 37 37 36 35 39 39 33 39 36 30 37 31 33 35 34 34 34 36 36 34 32 40 36 26 29 34 36 36 39 33 31 34 35 35 34 31 34 31 36 35 34 37 37 34 34 37 47 50 48 48 47 47 49 50 50 50 51 50 50 51 52
45 46 46 46 41 49 42 42 40 38 37 37 37 35 35 35 37 38 36 35 33 29 30 27 28 38 39 38 37 38 35 36 37 35 35 38 36 37 38 35 34 34 34 37 40 31 39 35 32 32 27 32 33 37 33 34 31 29 31 32 35 34 32 34 36 42 38 36 35 30 29 35 40 49 46 47 47 47 47 49 49 50 50 50 50 50 51 52